Weather History for Sedona, AZ

Change the Weather History Date:

Thursday, April 4, 2013

  Actual Average Record
Temperature  
Mean Temperature 64 °F -  
Max Temperature 78 °F 69 °F 78 °F (2013)
Min Temperature 51 °F 37 °F 37 °F (2011)
Growing Degree Days 14 (Base 50)    
Moisture  
Dew Point 24 °F    
Average Humidity 22    
Maximum Humidity 30    
Minimum Humidity 13    
Precipitation  
Precipitation 0.00 in - - ()
Sea Level Pressure  
Sea Level Pressure 30.14 in    
Wind  
Wind Speed 10 mph (SE)    
Max Wind Speed 16 mph    
Max Gust Speed 21 mph    
Visibility 10 miles    
Events      
Averages and records for this station are not official NWS values.
T = Trace of Precipitation, MM = Missing Value Source: NWS Daily Summary

Daily Weather History Graph

Daily Weather History Graph

Search for Another Location

Airport:

Trip Planner

Search our weather history database for the weather conditions in past years. The results will help you decide how hot, cold, wet, or windy it might be!

Date:

Astronomy

Apr. 04, 2013 Rise Set
Actual Time 6:09 AM MST 6:51 PM MST
Civil Twilight 5:43 AM MST 7:16 PM MST
Nautical Twilight 5:13 AM MST 7:46 PM MST
Astronomical Twilight 4:43 AM MST 8:17 PM MST
Moon 2:25 AM MST (4/4) 1:25 PM MST (4/4)
Length of Visible Light 13h 32m
Length of Day
12h 41m
Waning Crescent, 32% of the Moon is Illuminated
Apr 4
Waning Crescent
Apr 10
New
Apr 18
First Quarter
Apr 25
Full
May 2
Last Quarter

Hourly Weather History & Observations

Time (MST) Temp. Dew Point Humidity Pressure Visibility Wind Dir Wind Speed Gust Speed Precip Events Conditions
12:15 AM 57.2 °F 19.4 °F 23% 30.18 in 10.0 mi NE 12.7 mph - N/A   Clear
12:35 AM 57.2 °F 19.4 °F 23% 30.17 in 10.0 mi NE 12.7 mph - N/A   Clear
12:55 AM 57.2 °F 19.4 °F 23% 30.17 in 10.0 mi NE 12.7 mph - N/A   Clear
1:15 AM 55.4 °F 19.4 °F 25% 30.17 in 10.0 mi NE 15.0 mph - N/A   Clear
1:35 AM 55.4 °F 19.4 °F 25% 30.17 in 10.0 mi NE 15.0 mph - N/A   Clear
1:55 AM 55.4 °F 19.4 °F 25% 30.18 in 10.0 mi NE 11.5 mph - N/A   Clear
2:15 AM 57.2 °F 19.4 °F 23% 30.17 in 10.0 mi ENE 12.7 mph - N/A   Clear
2:35 AM 55.4 °F 19.4 °F 25% 30.17 in 10.0 mi NE 11.5 mph - N/A   Clear
2:55 AM 55.4 °F 19.4 °F 25% 30.17 in 10.0 mi NE 12.7 mph - N/A   Clear
3:15 AM 53.6 °F 19.4 °F 26% 30.17 in 10.0 mi NE 13.8 mph - N/A   Clear
3:35 AM 53.6 °F 19.4 °F 26% 30.17 in 10.0 mi NE 13.8 mph - N/A   Clear
3:55 AM 53.6 °F 19.4 °F 26% 30.17 in 10.0 mi NE 13.8 mph - N/A   Clear
4:15 AM 53.6 °F 19.4 °F 26% 30.18 in 10.0 mi NE 11.5 mph - N/A   Clear
4:35 AM 53.6 °F 19.4 °F 26% 30.18 in 10.0 mi NE 12.7 mph - N/A   Clear
4:55 AM 53.6 °F 21.2 °F 28% 30.19 in 10.0 mi NE 12.7 mph - N/A   Clear
5:15 AM 53.6 °F 21.2 °F 28% 30.18 in 10.0 mi NE 13.8 mph - N/A   Clear
5:35 AM 53.6 °F 21.2 °F 28% 30.18 in 10.0 mi NE 16.1 mph - N/A   Clear
5:55 AM 51.8 °F 21.2 °F 30% 30.18 in 10.0 mi NE 13.8 mph - N/A   Clear
6:15 AM 53.6 °F 21.2 °F 28% 30.18 in 10.0 mi NE 13.8 mph - N/A   Clear
6:35 AM 53.6 °F 21.2 °F 28% 30.19 in 10.0 mi NE 12.7 mph - N/A   Clear
6:55 AM 53.6 °F 21.2 °F 28% 30.19 in 10.0 mi NE 12.7 mph - N/A   Clear
7:15 AM 55.4 °F 21.2 °F 26% 30.19 in 10.0 mi NE 13.8 mph - N/A   Clear
7:55 AM 59.0 °F 23.0 °F 25% 30.20 in 10.0 mi NE 10.4 mph - N/A   Clear
8:15 AM 60.8 °F 26.6 °F 27% 30.21 in 10.0 mi East 5.8 mph - N/A   Clear
8:35 AM 60.8 °F 26.6 °F 27% 30.21 in 10.0 mi Calm Calm - N/A   Clear
8:55 AM 62.6 °F 28.4 °F 27% 30.21 in 10.0 mi South 4.6 mph - N/A   Clear
9:15 AM 62.6 °F 26.6 °F 26% 30.21 in 10.0 mi SSE 3.5 mph - N/A   Clear
9:35 AM 64.4 °F 28.4 °F 26% 30.21 in 10.0 mi SSE 3.5 mph - N/A   Clear
9:55 AM 64.4 °F 26.6 °F 24% 30.21 in 10.0 mi Calm Calm - N/A   Clear
10:15 AM 68.0 °F 28.4 °F 23% 30.21 in 10.0 mi South 3.5 mph - N/A   Clear
10:55 AM 71.6 °F 30.2 °F 22% 30.21 in 10.0 mi South 3.5 mph - N/A   Clear
11:15 AM 69.8 °F 30.2 °F 23% 30.21 in 10.0 mi South 4.6 mph - N/A   Clear
11:35 AM 73.4 °F 30.2 °F 20% 30.20 in 10.0 mi WSW 3.5 mph - N/A   Clear
11:55 AM 77.0 °F 28.4 °F 17% 30.19 in 10.0 mi South 8.1 mph - N/A   Clear
12:15 PM 75.2 °F 24.8 °F 15% 30.17 in 10.0 mi SSE 12.7 mph 20.7 mph N/A   Clear
12:35 PM 75.2 °F 23.0 °F 14% 30.17 in 10.0 mi South 8.1 mph - N/A   Clear
12:55 PM 77.0 °F 24.8 °F 14% 30.16 in 10.0 mi South 8.1 mph - N/A   Clear
1:15 PM 73.4 °F 24.8 °F 16% 30.15 in 10.0 mi SSE 4.6 mph - N/A   Clear
1:35 PM 77.0 °F 26.6 °F 16% 30.14 in 10.0 mi South 9.2 mph - N/A   Clear
1:55 PM 77.0 °F 26.6 °F 16% 30.13 in 10.0 mi South 8.1 mph 18.4 mph N/A   Clear
2:15 PM 77.0 °F 24.8 °F 14% 30.12 in 10.0 mi Calm Calm - N/A   Clear
2:35 PM 78.8 °F 26.6 °F 15% 30.12 in 10.0 mi SE 8.1 mph - N/A   Clear
2:55 PM 78.8 °F 26.6 °F 15% 30.11 in 10.0 mi SSE 9.2 mph 16.1 mph N/A   Clear
3:15 PM 78.8 °F 24.8 °F 14% 30.10 in 10.0 mi South 6.9 mph - N/A   Clear
3:35 PM 77.0 °F 24.8 °F 14% 30.10 in 10.0 mi SSE 8.1 mph - N/A   Clear
3:55 PM 77.0 °F 23.0 °F 13% 30.09 in 10.0 mi SW 9.2 mph - N/A   Clear
4:15 PM 73.4 °F 24.8 °F 16% 30.09 in 10.0 mi SW 10.4 mph 16.1 mph N/A   Clear
4:35 PM 73.4 °F 26.6 °F 18% 30.09 in 10.0 mi South 9.2 mph 16.1 mph N/A   Clear
4:55 PM 73.4 °F 26.6 °F 18% 30.09 in 10.0 mi SSW 9.2 mph - N/A   Clear
5:15 PM 73.4 °F 26.6 °F 18% 30.09 in 10.0 mi SSW 10.4 mph - N/A   Clear
5:35 PM 71.6 °F 26.6 °F 19% 30.08 in 10.0 mi SW 8.1 mph - N/A   Clear
5:55 PM 71.6 °F 26.6 °F 19% 30.08 in 10.0 mi SW 11.5 mph - N/A   Clear
6:15 PM 69.8 °F 26.6 °F 20% 30.08 in 10.0 mi SW 9.2 mph - N/A   Clear
6:35 PM 69.8 °F 26.6 °F 20% 30.08 in 10.0 mi SSW 10.4 mph 16.1 mph N/A   Clear
6:55 PM 68.0 °F 26.6 °F 21% 30.08 in 10.0 mi South 5.8 mph - N/A   Clear
7:15 PM 68.0 °F 26.6 °F 21% 30.08 in 10.0 mi South 6.9 mph - N/A   Clear
7:35 PM 68.0 °F 26.6 °F 21% 30.09 in 10.0 mi South 4.6 mph - N/A   Clear
7:55 PM 68.0 °F 26.6 °F 21% 30.09 in 10.0 mi South 4.6 mph - N/A   Clear
8:15 PM 66.2 °F 26.6 °F 23% 30.10 in 10.0 mi South 4.6 mph - N/A   Clear
8:35 PM 64.4 °F 26.6 °F 24% 30.10 in 10.0 mi SSW 3.5 mph - N/A   Clear
8:55 PM 64.4 °F 26.6 °F 24% 30.10 in 10.0 mi Calm Calm - N/A   Clear
9:15 PM 64.4 °F 26.6 °F 24% 30.10 in 10.0 mi SE 3.5 mph - N/A   Clear
9:35 PM 64.4 °F 26.6 °F 24% 30.10 in 10.0 mi SE 3.5 mph - N/A   Clear
9:55 PM 64.4 °F 26.6 °F 24% 30.10 in 10.0 mi SE 3.5 mph - N/A   Clear
10:15 PM 64.4 °F 26.6 °F 24% 30.10 in 10.0 mi ESE 3.5 mph - N/A   Clear
10:35 PM 62.6 °F 26.6 °F 26% 30.10 in 10.0 mi SE 3.5 mph - N/A   Clear
10:55 PM 62.6 °F 26.6 °F 26% 30.09 in 10.0 mi SE 4.6 mph - N/A   Clear
11:15 PM 62.6 °F 26.6 °F 26% 30.09 in 10.0 mi SE 3.5 mph - N/A   Clear
11:35 PM 62.6 °F 26.6 °F 26% 30.09 in 10.0 mi SSE 4.6 mph - N/A   Clear
11:55 PM 62.6 °F 26.6 °F 26% 30.09 in 10.0 mi SE 4.6 mph - N/A   Clear